Precipitable_Water
0.34 0.29 0.24 0.24 0.24 0.23 0.21 0.17 0.16 0.18 0.20 0.18 0.14 0.15 0.16 0.24 0.27 0.28 0.29 0.29 0.32 0.34 0.37 0.40 0.40 0.41 0.41 0.42 0.44 0.46 0.46 0.48 0.49 0.49 0.50 0.52 0.53 0.58 0.65 0.69 0.79 0.81 0.91 1.00
0.28 0.22 0.25 0.25 0.23 0.19 0.16 0.14 0.14 0.17 0.19 0.16 0.14 0.13 0.18 0.21 0.23 0.27 0.29 0.30 0.29 0.30 0.31 0.34 0.35 0.36 0.38 0.39 0.41 0.41 0.41 0.43 0.45 0.47 0.48 0.49 0.51 0.54 0.62 0.72 0.77 0.73 0.79 0.88
0.22 0.24 0.26 0.22 0.18 0.16 0.17 0.14 0.14 0.13 0.15 0.14 0.13 0.08 0.16 0.21 0.26 0.30 0.33 0.31 0.31 0.31 0.31 0.33 0.35 0.36 0.36 0.35 0.36 0.37 0.40 0.42 0.46 0.50 0.50 0.50 0.51 0.51 0.53 0.61 0.70 0.79 0.79 0.82
0.22 0.25 0.21 0.17 0.17 0.17 0.12 0.18 0.15 0.13 0.10 0.07 0.13 0.05 0.13 0.19 0.21 0.26 0.27 0.28 0.30 0.31 0.34 0.33 0.31 0.31 0.32 0.34 0.39 0.39 0.41 0.42 0.44 0.47 0.45 0.45 0.45 0.44 0.52 0.60 0.66 0.71 0.80 0.83
0.19 0.19 0.17 0.17 0.16 0.19 0.15 0.17 0.14 0.12 0.10 0.10 0.12 0.10 0.12 0.19 0.22 0.22 0.25 0.27 0.27 0.31 0.32 0.30 0.31 0.35 0.36 0.38 0.39 0.39 0.41 0.42 0.40 0.42 0.43 0.41 0.40 0.43 0.46 0.51 0.56 0.60 0.71 0.80
0.19 0.24 0.23 0.20 0.21 0.20 0.19 0.15 0.11 0.12 0.11 0.09 0.12 0.09 0.06 0.13 0.19 0.21 0.22 0.23 0.25 0.27 0.29 0.29 0.30 0.33 0.35 0.37 0.40 0.40 0.40 0.38 0.39 0.42 0.44 0.43 0.41 0.41 0.41 0.44 0.45 0.55 0.62 0.72
0.17 0.18 0.23 0.23 0.15 0.20 0.17 0.12 0.07 0.07 0.07 0.05 0.13 0.09 0.08 0.18 0.21 0.20 0.19 0.18 0.22 0.26 0.23 0.25 0.28 0.32 0.36 0.38 0.39 0.40 0.40 0.39 0.41 0.42 0.41 0.44 0.45 0.43 0.42 0.43 0.46 0.48 0.59 0.66
0.11 0.09 0.17 0.23 0.18 0.15 0.16 0.14 0.10 0.06 0.05 0.06 0.10 0.07 0.12 0.20 0.20 0.21 0.17 0.19 0.21 0.20 0.20 0.20 0.28 0.33 0.37 0.40 0.41 0.41 0.42 0.41 0.41 0.42 0.43 0.45 0.46 0.45 0.42 0.43 0.47 0.52 0.59 0.68
0.12 0.12 0.21 0.23 0.23 0.20 0.16 0.14 0.17 0.11 0.12 0.10 0.10 0.11 0.13 0.19 0.14 0.14 0.17 0.18 0.20 0.19 0.19 0.20 0.27 0.33 0.37 0.39 0.39 0.39 0.42 0.43 0.43 0.42 0.44 0.43 0.45 0.45 0.42 0.41 0.48 0.55 0.60 0.67
0.21 0.12 0.20 0.22 0.23 0.24 0.19 0.20 0.12 0.12 0.08 0.07 0.06 0.08 0.08 0.13 0.13 0.15 0.16 0.20 0.20 0.20 0.20 0.22 0.25 0.28 0.31 0.35 0.38 0.40 0.42 0.43 0.43 0.43 0.45 0.44 0.46 0.45 0.43 0.41 0.47 0.55 0.61 0.68
0.22 0.19 0.16 0.19 0.13 0.13 0.15 0.16 0.17 0.16 0.13 0.10 0.08 0.08 0.14 0.14 0.15 0.19 0.21 0.22 0.21 0.19 0.22 0.24 0.26 0.29 0.32 0.35 0.37 0.37 0.36 0.36 0.41 0.42 0.44 0.45 0.44 0.44 0.41 0.43 0.51 0.55 0.59 0.72
0.25 0.17 0.13 0.13 0.17 0.20 0.20 0.18 0.17 0.13 0.10 0.13 0.14 0.11 0.18 0.16 0.20 0.25 0.25 0.21 0.19 0.20 0.23 0.25 0.27 0.28 0.29 0.29 0.29 0.29 0.32 0.32 0.33 0.39 0.43 0.43 0.43 0.44 0.40 0.46 0.55 0.49 0.58 0.74
0.20 0.16 0.10 0.08 0.15 0.19 0.16 0.17 0.17 0.18 0.20 0.12 0.12 0.10 0.15 0.20 0.22 0.26 0.24 0.19 0.19 0.21 0.23 0.23 0.23 0.24 0.25 0.27 0.27 0.28 0.31 0.34 0.35 0.36 0.40 0.41 0.42 0.40 0.40 0.48 0.53 0.49 0.62 0.80
0.23 0.18 0.13 0.08 0.10 0.15 0.13 0.10 0.12 0.15 0.12 0.12 0.10 0.13 0.18 0.21 0.22 0.21 0.21 0.19 0.19 0.22 0.22 0.23 0.23 0.24 0.24 0.26 0.27 0.30 0.30 0.33 0.36 0.38 0.40 0.39 0.39 0.38 0.41 0.49 0.49 0.48 0.68 0.82
0.19 0.11 0.11 0.13 0.13 0.13 0.12 0.11 0.12 0.14 0.16 0.15 0.14 0.16 0.19 0.22 0.22 0.22 0.22 0.19 0.19 0.20 0.21 0.22 0.23 0.24 0.26 0.26 0.26 0.27 0.28 0.30 0.33 0.33 0.34 0.35 0.38 0.38 0.44 0.47 0.46 0.48 0.68 0.83
0.20 0.11 0.12 0.11 0.13 0.13 0.10 0.13 0.16 0.15 0.13 0.16 0.18 0.17 0.26 0.28 0.27 0.24 0.23 0.22 0.19 0.19 0.20 0.21 0.22 0.25 0.24 0.25 0.25 0.26 0.27 0.29 0.33 0.31 0.33 0.35 0.35 0.36 0.43 0.43 0.46 0.48 0.64 0.81
0.16 0.14 0.13 0.08 0.11 0.12 0.11 0.16 0.15 0.16 0.16 0.20 0.16 0.22 0.30 0.27 0.28 0.28 0.25 0.23 0.21 0.21 0.21 0.20 0.24 0.24 0.24 0.24 0.24 0.24 0.25 0.28 0.30 0.32 0.33 0.33 0.34 0.36 0.40 0.42 0.46 0.47 0.70 0.81
0.17 0.16 0.15 0.11 0.11 0.06 0.13 0.17 0.15 0.14 0.18 0.27 0.27 0.28 0.27 0.27 0.30 0.31 0.28 0.24 0.21 0.23 0.22 0.23 0.25 0.25 0.25 0.25 0.25 0.26 0.27 0.30 0.32 0.33 0.34 0.35 0.35 0.37 0.39 0.42 0.44 0.49 0.70 0.80
0.21 0.17 0.10 0.08 0.06 0.06 0.05 0.12 0.13 0.14 0.15 0.25 0.21 0.23 0.26 0.29 0.30 0.27 0.29 0.25 0.24 0.25 0.24 0.27 0.28 0.28 0.26 0.25 0.26 0.30 0.31 0.33 0.33 0.33 0.35 0.37 0.37 0.37 0.39 0.40 0.43 0.58 0.69 0.80
0.18 0.16 0.09 0.07 0.05 0.05 0.07 0.15 0.18 0.17 0.10 0.25 0.22 0.23 0.25 0.28 0.22 0.24 0.25 0.24 0.23 0.25 0.28 0.29 0.30 0.29 0.25 0.25 0.31 0.35 0.36 0.36 0.35 0.37 0.36 0.38 0.38 0.38 0.39 0.42 0.47 0.61 0.75 0.83
0.10 0.09 0.07 0.07 0.08 0.08 0.12 0.16 0.16 0.09 0.11 0.19 0.21 0.23 0.25 0.26 0.28 0.28 0.26 0.23 0.26 0.29 0.30 0.31 0.30 0.26 0.26 0.33 0.39 0.41 0.43 0.42 0.42 0.40 0.39 0.38 0.39 0.39 0.41 0.46 0.54 0.67 0.81 0.87
0.08 0.08 0.09 0.10 0.09 0.07 0.17 0.16 0.14 0.17 0.19 0.20 0.21 0.24 0.27 0.30 0.29 0.26 0.24 0.23 0.26 0.28 0.27 0.28 0.26 0.27 0.34 0.41 0.48 0.48 0.47 0.48 0.47 0.42 0.39 0.37 0.38 0.39 0.43 0.54 0.63 0.78 0.85 0.87
0.09 0.11 0.11 0.13 0.11 0.16 0.19 0.21 0.24 0.26 0.23 0.22 0.22 0.24 0.29 0.30 0.27 0.25 0.23 0.24 0.25 0.27 0.26 0.26 0.29 0.34 0.41 0.49 0.52 0.48 0.50 0.51 0.48 0.42 0.39 0.37 0.38 0.40 0.51 0.64 0.76 0.84 0.87 0.87
0.13 0.17 0.15 0.16 0.18 0.21 0.22 0.24 0.26 0.28 0.26 0.27 0.27 0.28 0.32 0.29 0.27 0.24 0.24 0.23 0.26 0.25 0.23 0.30 0.34 0.40 0.46 0.52 0.54 0.53 0.53 0.53 0.49 0.42 0.39 0.38 0.38 0.45 0.60 0.74 0.82 0.86 0.87 0.90
0.16 0.19 0.18 0.18 0.22 0.24 0.26 0.28 0.29 0.29 0.31 0.30 0.31 0.32 0.32 0.31 0.26 0.24 0.22 0.26 0.25 0.23 0.30 0.35 0.41 0.46 0.50 0.52 0.51 0.53 0.52 0.51 0.47 0.43 0.39 0.39 0.46 0.54 0.71 0.80 0.84 0.90 0.95 0.98
0.20 0.20 0.19 0.17 0.25 0.28 0.29 0.33 0.32 0.31 0.31 0.31 0.31 0.32 0.33 0.30 0.25 0.24 0.26 0.25 0.23 0.29 0.34 0.43 0.47 0.51 0.51 0.51 0.51 0.54 0.55 0.52 0.48 0.43 0.40 0.46 0.57 0.71 0.77 0.81 0.84 0.94 0.98 1.00
Wind_Speed
12 10 11 13 14 15 18 21 24 24 24 28 28 32 33 28 27 26 27 29 30 32 32 33 36 37 39 40 41 42 43 44 44 44 44 44 44 44 43 43 43 43 42 42
10 9 13 14 16 19 21 22 22 23 26 31 34 37 32 29 28 28 29 30 32 34 36 37 38 40 41 42 43 45 45 45 45 45 45 45 46 46 46 45 44 43 43 43
11 12 15 17 19 19 18 21 25 30 35 37 34 35 27 28 28 30 32 34 36 37 39 39 41 42 43 44 43 43 43 42 42 43 43 44 45 45 45 45 46 45 44 43
12 15 17 19 16 21 23 25 30 34 37 32 33 32 28 30 31 31 35 37 38 39 40 42 43 43 42 42 41 40 40 39 39 39 40 40 40 41 42 43 43 44 44 43
13 17 19 17 22 24 25 33 34 38 36 32 25 31 29 32 33 36 37 38 39 39 41 43 43 41 40 39 38 38 38 37 36 35 35 35 37 38 39 39 40 41 42 41
16 16 17 22 24 25 33 34 39 30 28 28 25 32 37 34 36 37 37 39 40 42 41 42 41 38 37 36 35 35 34 34 33 33 33 32 32 33 33 34 35 35 36 37
19 18 20 24 28 27 34 35 32 29 29 32 29 40 42 35 34 34 38 42 40 39 41 40 39 35 34 34 34 33 32 32 31 31 31 30 30 30 30 31 31 32 33 33
22 20 24 28 28 30 32 32 28 31 35 44 45 36 32 33 34 35 40 40 39 39 38 36 35 31 32 32 32 31 30 30 30 29 28 27 27 27 27 27 28 28 29 30
24 23 27 28 30 31 31 32 34 36 40 38 33 38 38 31 35 42 35 37 38 36 35 34 32 30 32 31 29 28 28 28 28 27 26 26 25 26 26 26 25 25 25 26
23 29 27 30 33 30 32 35 31 31 32 40 38 44 36 35 42 38 36 36 34 32 31 28 27 28 27 26 26 27 28 28 28 26 25 24 24 24 24 24 23 24 23 23
28 26 29 34 32 37 35 33 32 35 35 37 40 34 35 41 36 34 36 32 30 27 26 25 24 24 24 23 24 26 27 28 27 25 23 22 22 22 22 22 20 18 18 18
28 31 33 37 35 33 33 34 35 34 40 38 38 41 34 32 35 32 31 29 25 24 24 24 25 25 25 25 25 26 26 26 25 23 22 20 20 19 19 19 18 15 15 15
31 28 35 32 28 31 36 40 40 38 37 39 36 35 35 34 32 29 27 25 23 23 24 25 26 27 27 27 27 27 25 25 23 21 19 18 18 18 19 18 14 12 11 11
31 31 33 36 42 44 45 45 41 37 35 37 35 35 32 30 27 25 24 23 22 23 24 26 28 29 29 27 26 26 24 24 22 19 17 17 17 17 17 15 13 10 8 9
31 34 37 40 43 44 44 43 41 36 33 30 32 31 29 25 24 24 23 22 23 24 26 28 30 30 29 27 27 27 24 23 21 18 16 16 16 16 15 14 11 9 9 9
35 35 41 43 41 40 43 41 33 31 30 28 27 26 20 23 23 23 24 24 24 25 27 29 31 32 30 29 29 28 25 23 21 17 16 16 15 15 13 13 10 8 8 8
34 36 39 39 42 45 37 29 33 30 29 26 22 22 25 24 25 25 26 24 24 26 28 31 32 33 31 30 29 27 25 22 20 17 17 16 16 14 13 11 8 7 7 6
34 35 36 40 42 35 27 31 32 30 26 18 21 22 24 26 26 24 23 23 24 28 31 32 33 33 31 30 28 26 23 21 20 19 19 17 15 13 12 9 7 7 5 5
32 35 36 34 38 43 36 26 29 30 27 21 24 25 26 25 25 20 22 24 27 30 32 33 33 32 32 31 30 28 26 24 23 21 18 15 13 11 9 7 6 6 5 4
32 35 34 36 32 31 29 27 29 32 26 14 23 24 24 24 20 20 25 27 28 30 32 33 33 33 33 32 31 27 25 24 22 18 15 13 11 9 8 7 6 7 6 5
36 35 31 33 32 33 30 28 32 22 22 27 25 23 21 21 21 24 26 27 30 32 33 33 33 33 33 32 30 29 24 19 17 16 14 12 10 8 8 7 6 9 10 13
33 32 30 32 31 26 27 33 26 29 28 25 23 21 20 22 23 23 26 29 32 33 34 33 34 33 33 31 29 24 18 15 13 14 14 11 9 9 8 7 7 9 17 20
30 29 32 28 28 33 32 29 28 27 25 20 19 20 20 21 21 24 27 31 32 33 34 34 33 33 31 30 25 21 15 11 10 13 14 12 10 9 9 9 10 15 21 21
31 31 29 31 24 30 31 27 24 23 21 18 17 17 18 19 21 25 28 31 32 33 34 33 33 33 31 27 22 17 11 8 10 13 13 12 11 10 10 13 14 21 23 24
32 29 28 28 29 31 26 24 24 21 16 13 14 15 15 18 22 26 29 30 32 33 33 33 33 31 28 24 18 13 7 10 12 14 14 13 12 12 13 15 18 24 27 27
24 26 26 26 30 27 28 25 21 15 12 12 13 14 14 18 22 26 28 30 32 33 33 32 32 27 24 19 13 4 4 12 15 15 15 14 14 13 15 18 24 27 28 26
Wind_Direction
332 337 340 336 334 322 315 311 309 313 314 313 309 305 305 304 302 301 301 300 299 299 298 297 296 296 295 294 294 292 290 288 286 283 281 279 277 276 274 273 272 271 269 267
328 341 333 324 325 321 317 316 319 313 315 313 309 307 306 304 303 303 304 303 302 300 299 298 297 297 296 295 294 293 292 289 286 283 281 279 277 275 273 272 270 270 268 266
336 329 324 325 324 325 321 321 319 313 314 309 312 308 306 308 306 305 303 304 303 302 300 299 299 298 297 297 296 295 293 291 288 287 283 281 279 275 274 271 269 268 268 264
329 327 327 324 326 323 316 319 315 313 315 313 319 309 311 309 307 304 306 305 303 302 301 300 300 298 297 297 297 296 295 293 292 290 287 285 282 280 277 273 269 267 265 263
327 327 329 328 322 319 315 316 312 310 309 311 310 307 314 309 305 310 310 307 304 303 300 301 301 298 297 297 297 297 296 295 294 292 291 289 286 282 279 277 273 268 262 261
325 322 323 321 319 318 317 314 311 311 310 309 315 314 312 312 309 310 311 310 306 304 302 303 302 298 298 298 299 298 298 297 295 293 292 292 291 289 285 281 276 269 264 258
319 318 319 325 319 316 324 323 318 314 312 313 315 311 306 315 312 310 310 309 307 306 306 303 301 299 298 298 299 299 299 298 296 295 292 291 292 293 289 286 278 273 264 258
324 317 324 324 322 317 320 323 318 312 314 310 312 308 317 312 311 310 309 310 309 310 309 307 303 300 302 300 298 299 299 299 298 296 293 292 292 294 293 290 282 274 265 258
321 314 320 321 320 319 321 317 318 309 307 310 309 309 308 306 312 315 313 313 312 312 311 309 307 300 302 302 299 300 301 301 299 296 294 291 293 295 297 295 285 275 266 257
320 312 319 319 317 318 319 318 316 313 312 309 310 310 309 313 313 312 313 315 314 315 316 315 313 311 308 305 302 301 301 301 300 297 293 292 293 296 299 298 290 280 263 258
320 314 317 318 318 318 318 316 315 313 309 309 311 309 316 312 314 314 314 314 315 318 322 324 325 322 318 313 310 308 306 304 301 297 292 290 294 298 301 301 296 279 263 255
320 315 315 315 319 319 320 319 316 311 308 303 302 302 310 311 312 314 315 315 314 318 321 324 324 323 321 317 314 313 312 310 306 298 292 290 294 299 305 305 300 280 262 252
323 319 320 320 319 319 320 316 310 306 305 299 300 302 309 309 311 311 314 316 313 316 320 323 324 322 320 318 314 313 312 314 313 301 293 292 293 298 305 308 300 281 259 245
317 315 312 313 314 316 314 313 310 305 304 302 299 302 308 314 314 316 316 316 315 316 319 322 323 323 320 318 317 315 312 313 312 304 295 293 295 299 304 305 298 270 248 243
322 316 315 314 313 313 311 310 311 306 302 297 300 301 307 315 317 318 318 318 317 317 319 322 323 323 321 318 317 316 310 310 310 301 295 297 296 297 301 304 293 266 248 245
321 319 319 318 317 316 313 312 313 311 309 302 296 297 316 315 315 315 318 316 317 319 321 322 323 323 319 316 315 312 306 304 307 296 293 295 296 296 296 301 290 267 249 249
320 321 323 320 322 319 314 321 318 313 312 306 302 311 310 313 314 315 315 315 315 320 322 322 322 323 319 316 313 309 304 299 299 290 290 292 293 292 294 298 282 257 252 250
321 321 321 320 321 320 326 322 318 314 310 307 310 312 313 312 313 309 316 317 316 321 321 321 322 322 320 317 314 311 303 294 292 287 286 287 286 284 288 288 268 246 235 234
321 323 323 322 321 315 318 325 324 320 305 294 311 311 313 313 312 309 319 320 317 319 320 321 323 322 320 317 314 308 299 291 285 281 278 276 277 277 276 272 256 221 219 219
322 322 321 323 321 320 326 320 321 319 302 313 320 313 313 316 316 312 319 320 320 321 321 322 323 321 320 318 314 308 300 291 280 267 262 263 262 263 260 254 236 211 200 179
322 323 321 322 320 315 315 318 321 308 311 306 308 311 312 312 311 312 316 320 322 323 323 323 323 322 321 320 316 309 300 285 267 253 243 242 243 243 242 235 220 197 187 161
322 325 324 323 320 323 327 319 315 310 307 301 299 302 308 312 314 316 319 322 324 325 325 325 323 323 323 321 319 314 301 281 253 235 226 224 223 226 219 211 189 187 168 156
322 322 322 320 318 318 319 315 315 311 308 301 294 299 306 312 315 320 323 325 326 327 326 327 326 325 326 323 321 315 301 271 237 217 208 208 208 210 197 181 177 163 155 153
322 319 317 320 324 321 320 319 315 315 309 301 297 299 306 310 317 322 326 328 328 329 329 329 328 326 325 325 322 314 293 239 213 199 196 196 193 185 181 175 166 158 157 150
321 323 321 316 320 326 323 322 319 316 312 305 305 305 307 314 321 326 329 331 331 332 332 332 331 330 328 327 323 315 274 208 190 183 179 177 172 170 168 164 157 156 155 154
323 324 324 321 323 324 321 321 322 318 316 317 318 316 315 321 326 330 332 333 335 335 335 336 336 336 335 334 333 336 162 167 165 162 165 163 162 161 160 159 153 152 153 149